Weather Roundup
Issued by NWS

Home | Current Version | Previous Version | Text Only | Print | Product List | Glossary On
Versions: 1 2 3 4 5 6 7 8 9 10 11 12 13 14 15 16 17 18 19 20 21 22 23 24 25 26 27 28 29 30 31 32 33 34 35 36 37 38 39 40 41 42 43 44 45 46 47 48 49 50
125
NZUS93 KARX 280759
HRRWXR

CURRENT HOURLY OBSERVATIONS ACROSS
MUCH OF THE UPPER MISSISSIPPI VALLEY
NATIONAL WEATHER SERVICE LA CROSSE WI
300 AM CDT SUN AUG 28 2016


...SOUTHEAST MINNESOTA...


CITY           SKY/WX    TMP DP  RH WIND       PRES   REMARKS
ROCHESTER      FOG       60  60 100 S3        30.13R VSB 1/4
ROCHESTER/MAYO FAIR      64  64 100 CALM      30.12R
WINONA         MOCLDY    63  61  94 CALM      30.11S
AUSTIN         FOG       63  63 100 S3        30.12R VSB 1/2
ALBERT LEA       N/A     63  61  94 S3        30.11S FOG
DODGE CENTER   FOG       61  59  94 SE3       30.11F VSB 1/4
PRESTON        FOG       63  61  95 S5        30.13S VSB 3/4
OWATONNA       CLEAR     63  61  94 CALM      30.11R FOG
FARIBAULT      MOCLDY    57  55  94 CALM      30.10S FOG
$$

...ELSEWHERE IN MINNESOTA...


CITY           SKY/WX    TMP DP  RH WIND       PRES   REMARKS
MINNEAPOLIS    CLEAR     62  60  93 E6        30.09S
INTNL FALLS    PTCLDY    52  50  93 CALM      30.05R
DULUTH         FOG       56  56 100 CALM      30.09S VSB 1/8
RED WING       FOG       61  59  94 CALM      30.09S VSB 3/4
REDWOOD FALLS  CLEAR     62  59  90 S8        30.05F
MANKATO        CLEAR     63  59  88 SE5       30.08S
WORTHINGTON    CLEAR     60  59  96 SE7       30.07F FOG
FAIRMONT       FOG       57  57 100 SE3       30.09F VSB 1/4
$$

...SOUTHWEST WISCONSIN...


CITY           SKY/WX    TMP DP  RH WIND       PRES   REMARKS
LA CROSSE      CLOUDY    68  67  96 S7        30.11R
PRAIRIE DU CHI CLOUDY    63  61  95 CALM      30.12S FOG
BOSCOBEL       FOG       65  64  97 CALM      30.13R VSB 1/4
LONE ROCK      NOT AVBL
PLATTEVILLE      N/A     63  63 100 CALM      30.13S VSB 1/4
FORT MC COY    CLOUDY    64  64 100 CALM      30.13R FOG
MAUSTON-NEW LI CLOUDY    66  66  99 CALM      30.12S FOG
VIROQUA        CLOUDY    62  62 100 CALM      30.14S VSB 1/2
WIS DELLS      NOT AVBL
$$

...ELSEWHERE IN WISCONSIN...


CITY           SKY/WX    TMP DP  RH WIND       PRES   REMARKS
MILWAUKEE      PTCLDY    67  64  90 SE5       30.13R
MADISON        FOG       63  63 100 CALM      30.12S VSB 1
GREEN BAY      FOG       62  62 100 MISG      30.11R VSB 1/2
EAU CLAIRE     FOG       63  63 100 NW3       30.11R VSB 1
BLACK RVR FLS  FOG       65  65 100 CALM      30.11S VSB<1/4
MEDFORD        MOCLDY    61  61 100 SW5       30.12R FOG
WAUSAU         CLOUDY    63  61  93 W8        30.11R
WIS RAPIDS     FOG       65  65 100 W5        30.14R VSB 1
MARSHFIELD     PTCLDY    63  60  90 SW5       30.12R
RICE LAKE      FOG       59  58  96 SW3       30.14R VSB<1/4
$$

...NORTHEAST IOWA...


CITY           SKY/WX    TMP DP  RH WIND       PRES   REMARKS
WATERLOO       CLEAR     62  61  96 E3        30.10S FOG
DUBUQUE        MOCLDY    64  63  96 CALM      30.13S FOG
DECORAH        FOG       61  61 100 CALM      30.12S VSB 1/4
MASON CITY     FOG       58  58 100 CALM      30.13R VSB 1/4
CHARLES CITY   FOG       61  61 100 SE3       30.13R VSB 1/4
OELWEIN        PTCLDY    61  61 100 SE5       30.13S FOG
$$

...ELSEWHERE IN IOWA...


CITY           SKY/WX    TMP DP  RH WIND       PRES   REMARKS
DES MOINES     PTCLDY    71  69  93 SE3       30.09S
IOWA CITY      CLEAR     68  66  93 CALM      30.12S
FORT DODGE     PTCLDY    66  64  94 SE5       30.11R
MARSHALLTOWN   CLEAR     62  62 100 E6        30.11R
CEDAR RAPIDS   CLEAR     66  66 100 CALM      30.11S
$$

...NORTHERN ILLINOIS...


CITY           SKY/WX    TMP DP  RH WIND       PRES   REMARKS
CHICAGO-OHARE  MOCLDY    73  70  90 CALM      30.12R
CHICAGO-MIDWAY MOCLDY    75  70  84 W5        30.11R
MOLINE         CLEAR     69  68  96 E3        30.10R
ROCKFORD       CLOUDY    70  67  90 CALM      30.13R
PEORIA         CLEAR     72  72 100 CALM      30.11R
$$

NOTE: "FAIR" INDICATES FEW OR NO CLOUDS BELOW 12,000 FEET WITH NO
SIGNIFICANT WEATHER AND/OR OBSTRUCTIONS TO VISIBILITY. WIND
SPEEDS ARE IN MILES-PER-HOUR.




USA.gov is the U.S. government's official web portal to all federal, state and local government web resources and services.